RYR5Y EGPF-EIDW

Flight info

Callsign RYR5Y
Flight time N/A
Altitude 24000
Route NORBO L186 TRN DCT BLACA DCT NELBO P620 NIMAT NIMAT3R
Aircraft B38M/M-SDE1FGHILORVWXY/HB1

Departure

Time 2026-01-18 12:54
Airport Glasgow Airport (EGPF)

Arrival

Time N/A
Airport Dublin Airport (EIDW)
Time Latitude Longitude Altitude Speed Heading
2026-01-18 12:34 55.86622 -4.43123 31 ft 0 kts 74°
2026-01-18 12:43 55.86621 -4.43131 31 ft 2 kts 72°
2026-01-18 12:44 55.86585 -4.43193 31 ft 2 kts 350°
2026-01-18 12:44 55.86579 -4.43191 31 ft 0 kts 344°
2026-01-18 12:48 55.86620 -4.43212 31 ft 10 kts 344°
2026-01-18 12:49 55.86763 -4.43287 31 ft 1 kts 340°
2026-01-18 12:49 55.86762 -4.43561 31 ft 18 kts 253°
2026-01-18 12:50 55.86684 -4.43836 31 ft 16 kts 231°
2026-01-18 12:50 55.86457 -4.44273 31 ft 29 kts 226°
2026-01-18 12:50 55.86335 -4.44501 31 ft 18 kts 226°
2026-01-18 12:51 55.86268 -4.44754 31 ft 9 kts 317°
2026-01-18 12:51 55.86385 -4.44840 31 ft 11 kts 43°
2026-01-18 12:52 55.86575 -4.44488 31 ft 58 kts 46°
2026-01-18 12:53 55.87851 -4.42101 584 ft 175 kts 48°
2026-01-18 12:53 55.88700 -4.40480 1737 ft 184 kts 51°
2026-01-18 12:53 55.90676 -4.37060 3575 ft 204 kts 49°
2026-01-18 12:54 55.92741 -4.33171 5219 ft 233 kts 40°
2026-01-18 12:54 55.96234 -4.32137 5916 ft 307 kts 339°
2026-01-18 12:55 55.98787 -4.38024 7617 ft 310 kts 270°
2026-01-18 12:56 55.95350 -4.50764 12044 ft 296 kts 226°
2026-01-18 12:56 55.93891 -4.53362 12947 ft 297 kts 221°
2026-01-18 12:57 55.90952 -4.58632 14790 ft 302 kts 221°
2026-01-18 12:57 55.87979 -4.63987 16617 ft 305 kts 220°
2026-01-18 12:58 55.84645 -4.68592 18282 ft 305 kts 207°
2026-01-18 12:58 55.80932 -4.72533 19392 ft 320 kts 209°
2026-01-18 12:59 55.76768 -4.75442 20459 ft 333 kts 184°
2026-01-18 12:59 55.72017 -4.75733 21463 ft 349 kts 183°
2026-01-18 13:00 55.62016 -4.76126 23690 ft 370 kts 182°
2026-01-18 13:01 55.56757 -4.76459 24053 ft 387 kts 183°
2026-01-18 13:01 55.51216 -4.76889 24051 ft 413 kts 184°
2026-01-18 13:02 55.45294 -4.77337 24044 ft 439 kts 184°
2026-01-18 13:02 55.39089 -4.77802 24035 ft 459 kts 184°
2026-01-18 13:03 55.32606 -4.78436 24039 ft 473 kts 192°
2026-01-18 13:03 55.26492 -4.82794 24041 ft 482 kts 208°
2026-01-18 13:03 55.23464 -4.85384 24037 ft 487 kts 208°
2026-01-18 13:04 55.17080 -4.90953 24041 ft 495 kts 211°